Friday Harbor, WA
on Wednesday, December 26, 2012

Wednesday
Previous Day Next Day
Daily Summary
 ActualAverageRecord
Temperature
Mean Temperature °F °F  
Max Temperature 44°F 43°F 53°F (2005)
Min Temperature 41°F 34°F 21°F (1996)
Degree Days
Heating Degree Days 22    
Moisture
Dew Point 38°F   
Average Humidity 83    
Maximum Humidity 96    
Minimum Humidity 74    
Precipitation
Precipitation 0.00 in in in ()
Wind
Wind Speed 9 mph   
Max Wind Speed 14 mph   
Max Gust Speed 20 mph   
Visibility 9 miles   
Events Rain   
Averages and records for this station are not official NWS values.
Key: T is trace of precipitation, MM is missing value
Source: NWS Daily Summary
Seasonal Weather Averages
Time(PST)TemperatureDew PointHumidity Pressure Visibility Wind DirectionWind SpeedGust SpeedPrecipitationEvents Conditions
12:53 AM 43.0°F 36.0°F 76% 29.69 in 10.0 miles ESE 10.4 mph - N/A   Overcast
1:53 AM 43.0°F 36.0°F 76% 29.70 in 10.0 miles ESE 6.9 mph - N/A   Overcast
2:53 AM 43.0°F 35.1°F 74% 29.70 in 10.0 miles East 10.4 mph - N/A   Overcast
3:53 AM 43.0°F 36.0°F 76% 29.70 in 10.0 miles East 10.4 mph - N/A   Overcast
4:53 AM 43.0°F 36.0°F 76% 29.70 in 10.0 miles East 8.1 mph - N/A   Overcast
5:53 AM 43.0°F 36.0°F 76% 29.70 in 10.0 miles East 10.4 mph - N/A   Overcast
6:53 AM 43.0°F 35.1°F 74% 29.71 in 10.0 miles East 11.5 mph - N/A   Overcast
7:53 AM 43.0°F 36.0°F 76% 29.72 in 10.0 miles East 12.7 mph 19.6 mph N/A   Overcast
8:35 AM 42.8°F 37.4°F 81% 29.73 in 10.0 miles East 12.7 mph - N/A   Overcast
8:53 AM 42.1°F 37.0°F 82% 29.74 in 10.0 miles East 13.8 mph - N/A   Overcast
9:32 AM 42.8°F 35.6°F 76% 29.75 in 10.0 miles East 11.5 mph - N/A   Overcast
9:53 AM 42.1°F 36.0°F 79% 29.75 in 10.0 miles East 11.5 mph - N/A   Overcast
10:53 AM 43.0°F 37.0°F 80% 29.76 in 10.0 miles East 9.2 mph - N/A   Overcast
11:53 AM 43.0°F 37.0°F 80% 29.75 in 10.0 miles East 9.2 mph - N/A   Overcast
12:48 PM 44.6°F 37.4°F 76% 29.74 in 10.0 miles East 11.5 mph - N/A   Overcast
12:53 PM 44.1°F 37.9°F 79% 29.75 in 10.0 miles East 10.4 mph - N/A   Overcast
1:53 PM 44.1°F 39.0°F 82% 29.75 in 10.0 miles East 10.4 mph - N/A   Overcast
2:53 PM 44.1°F 39.0°F 82% 29.75 in 10.0 miles East 9.2 mph - N/A   Overcast
3:53 PM 44.1°F 39.0°F 82% 29.76 in 10.0 miles East 9.2 mph - N/A   Overcast
4:05 PM 44.6°F 39.2°F 81% 29.76 in 10.0 miles East 9.2 mph 17.3 mph N/A   Overcast
4:53 PM 44.1°F 39.0°F 82% 29.77 in 10.0 miles East 10.4 mph - 0.00 in Rain Light Rain
5:12 PM 44.6°F 39.2°F 81% 29.77 in 10.0 miles East 10.4 mph - 0.00 in Rain Light Rain
5:53 PM 44.1°F 39.9°F 85% 29.78 in 10.0 miles East 5.8 mph - 0.00 in   Overcast
6:49 PM 42.8°F 39.2°F 87% 29.80 in 10.0 miles NE 5.8 mph - 0.00 in Rain Light Rain
6:53 PM 43.0°F 39.9°F 89% 29.80 in 10.0 miles NE 6.9 mph - 0.00 in Rain Light Rain
7:53 PM 43.0°F 39.9°F 89% 29.82 in 10.0 miles NNE 8.1 mph - 0.00 in   Overcast
8:00 PM 42.8°F 39.2°F 87% 29.82 in 10.0 miles NNE 8.1 mph - N/A   Overcast
8:11 PM 42.8°F 39.2°F 87% 29.83 in 9.0 miles NNE 8.1 mph - N/A   Overcast
8:29 PM 42.8°F 41.0°F 93% 29.83 in 9.0 miles NNE 8.1 mph - N/A   Overcast
8:53 PM 42.1°F 41.0°F 96% 29.85 in 8.0 miles NNE 8.1 mph - N/A   Overcast
9:13 PM 42.8°F 39.2°F 87% 29.85 in 6.0 miles NNE 10.4 mph - 0.00 in Rain Light Rain
9:53 PM 42.1°F 39.9°F 92% 29.87 in 6.0 miles NNE 9.2 mph - 0.00 in   Overcast
10:10 PM 42.8°F 39.2°F 87% 29.88 in 5.0 miles North 6.9 mph - 0.00 in Rain Light Rain
10:22 PM 41.0°F 39.2°F 93% 29.88 in 5.0 miles North 6.9 mph - 0.00 in   Overcast
10:53 PM 41.0°F 39.0°F 93% 29.90 in 6.0 miles North 6.9 mph - 0.00 in Rain Light Rain
11:32 PM 41.0°F 39.2°F 93% 29.91 in 7.0 miles Calm Calm - 0.00 in   Overcast
11:53 PM 41.0°F 39.0°F 93% 29.93 in 7.0 miles NW 3.5 mph - 0.00 in   Overcast
Moon Phase
Dec. 26 Dec. 28 Jan. 04 Jan. 11 Jan. 18
Sunrise:08:03 AM (PST) Moon Rise:03:22 PM (PST)12/26
Sunset:04:22 PM (PST) Moon Set:06:29 AM (PST)12/26

Copyright © 2014 The Weather Underground, Inc.